Location: Albany
(35.0170°S, 117.8920°E)
Time: 22:39:00
(UTC+08:00)

Vanguard 1 - Visible Passes

Search period start: 23 January 2021 00:00
Search period end: 02 February 2021 00:00
Orbit: 648 x 3834 km, 34.3° (Epoch: 22 January)

Date Brightness Start Highest point End Pass type
(mag) Time Alt. Az. Time Alt. Az. Time Alt. Az.
23 Jan 9.1 03:43:07 28° W 03:45:27 82° N 03:50:20 10° E visible
24 Jan 11.7 01:50:11 14° E 01:50:11 14° E 01:50:49 10° E visible
24 Jan 9.1 04:02:53 17° W 04:06:19 83° N 04:11:22 10° E visible
25 Jan 11.0 02:09:58 24° E 02:09:58 24° E 02:11:43 10° E visible
25 Jan 9.2 04:22:45 10° W 04:27:11 77° N 04:32:24 10° ENE visible
26 Jan 10.2 02:29:47 40° E 02:29:47 40° E 02:32:37 10° E visible
26 Jan 9.4 04:43:39 10° W 04:48:03 65° NNW 04:53:23 10° ENE visible
27 Jan 9.3 02:49:38 67° ENE 02:49:38 67° ENE 02:53:31 10° E visible
28 Jan 9.0 03:09:32 73° WNW 03:09:56 82° N 03:14:26 10° E visible
28 Jan 12.7 20:23:57 10° N 20:27:57 12° NNE 20:28:35 12° NNE visible
28 Jan 13.1 22:41:05 10° NW 22:41:23 11° NW 22:41:23 11° NW visible
29 Jan 9.0 03:29:30 45° W 03:30:47 74° N 03:35:19 10° ENE visible
29 Jan 12.4 20:41:13 10° N 20:49:15 18° NNE 20:49:30 18° NNE visible
29 Jan 13.0 23:01:37 10° NW 23:02:19 12° NW 23:02:19 12° NW visible
30 Jan 9.2 03:49:31 30° W 03:51:37 61° NNW 03:56:10 10° ENE visible
30 Jan 12.0 21:00:15 10° NNW 21:10:25 25° NNE 21:10:25 25° NNE visible
30 Jan 13.0 23:22:29 10° WNW 23:23:14 12° NW 23:23:14 12° NW visible
31 Jan 11.9 01:56:52 12° E 01:56:52 12° E 01:57:09 10° E visible
31 Jan 9.5 04:09:37 20° W 04:12:25 46° NNW 04:16:54 10° NE visible
31 Jan 11.7 21:20:05 10° NNW 21:31:18 33° NNE 21:31:18 33° NNE visible
31 Jan 13.0 23:43:35 10° WNW 23:44:06 11° WNW 23:44:06 11° WNW visible
01 Feb 11.5 02:17:03 17° E 02:17:03 17° E 02:17:59 10° E visible
01 Feb 9.9 04:29:47 13° W 04:33:10 32° NNW 04:37:25 10° NE visible
01 Feb 11.4 21:40:26 10° NW 21:52:06 41° NNE 21:52:06 41° NNE visible
